[[{"header":{"parameterUnit":"m.s-1","parameterCategory":1,"la1":30.2991,"la2":30.254,"lo1":-89.0895,"lo2":-89.0444,"dy":0.0017,"dx":0.0017,"nx":28,"ny":28,"refTime":"2024-05-07T03:00:00:Z","depth":0,"parameterNumber":2,"parameterNumberName":"U-component_of_WINDS"},"data":[0,0,0,0,0,0,0,0,0,0,0,0,0,0,0,0,0,0,0,0,0,0,0,0,0,0,0,0,0,0,0,0,0,0,0,0,0,0,0,0,0,0,0,0,0,0,0,0,0,0,0,0,0,0,0,0,0,0,-1.0009,-1.0008,0,-0.9957,-0.9956,-0.9956,-0.9936,-0.9937,-0.9937,-0.9937,-0.9879,-0.9878,-0.9876,0,0,0,0,0,0,0,0,0,0,0,0,0,-1.0089,-1.0087,-1.0009,-1.0008,-1.0008,-0.9957,-0.9956,-0.9955,-0.9936,-0.9937,-0.9937,-0.9937,-0.988,-0.9878,-0.9876,0,0,0,0,0,0,0,0,0,0,0,0,0,-1.0047,-1.0087,-1.0009,-0.9992,-0.999,-0.9957,-0.9956,-0.9955,-0.9936,-0.9937,-0.9937,-0.9937,-0.9881,-0.9878,-0.9876,-0.9854,0,0,-0.9868,-0.9867,0,0,0,0,0,0,0,0,-1.0049,-1.0044,-0.9995,-0.9993,-0.9991,-0.9954,-0.9963,-0.9921,-0.9936,-0.9957,-0.9937,-0.9937,-0.9903,-0.9899,-0.9889,-0.9851,-0.9849,-0.9867,-0.9866,-0.9865,-0.9864,0,0,0,0,0,0,0,-1.0052,-1.0046,-0.9988,-0.9995,-0.9992,-0.9986,-0.998,-0.9955,-0.9929,-0.9955,-0.9953,-0.9948,-0.9902,-0.9891,-0.9887,-0.9848,-0.9868,-0.9865,-0.9864,-0.9863,-0.9791,-0.9791,0,0,0,0,0,0,-1.0059,-1.0049,-0.999,-0.9987,-1.0022,-0.9984,-0.9978,-0.9965,-0.9929,-0.9924,-0.9948,-0.9947,-0.9895,-0.989,-0.9885,-0.9858,-0.9865,-0.9862,-0.9861,-0.9791,-0.9791,-0.9791,0,0,0,0,0,0,-1.006,-1.0054,-0.9992,-1.0017,-1.0009,-0.9983,-0.9968,-0.9964,-0.9953,-0.9924,-0.9919,-0.9941,-0.9895,-0.9889,-0.9862,-0.9855,-0.9861,-0.9859,-0.9792,-0.9791,-0.9791,-0.9803,0,0,0,0,0,0,-1.0063,-1.0054,-1.0047,-1.0017,-1.0008,-0.9971,-0.9968,-0.9963,-0.9949,-0.9948,-0.9916,-0.9911,-0.9895,-0.9866,-0.986,-0.9852,-0.9857,-0.9792,-0.9792,-0.9791,-0.9803,-0.9803,-0.9803,0,0,0,0,0,-1.0066,-1.0051,-1.0046,-1.0039,-0.9998,-0.9971,-0.9965,-0.9948,-0.9948,-0.994,-0.9922,-0.9912,-0.9858,-0.9864,-0.9856,-0.9848,-0.9793,-0.9792,-0.9791,-0.9803,-0.9803,-0.9803,0,0,0,0,0,0,-1.0078,-1.0047,-1.0041,-1.0017,-0.9997,-0.9968,-0.9957,-0.9948,-0.9927,-0.9926,-0.9905,-0.9898,-0.9873,-0.9858,-0.9865,-0.9825,-0.9824,-0.9822,-0.9836,-0.9836,-0.9836,-0.984,-0.9855,0,0,0,0,0,-1.0079,-1.0061,-1.0034,-1.0015,-1.0005,-0.9983,-0.997,-0.9959,-0.9937,-0.9928,-0.9907,-0.9885,-0.9863,-0.9848,-0.9826,-0.9801,-0.9794,-0.9791,-0.9791,-0.9791,-0.9789,-0.9775,-0.9774,-0.9788,-0.9788,-0.9788,0,0,-1.0079,-1.0059,-1.0049,-1.0017,-1.0,-0.9981,-0.9976,-0.9956,-0.9941,-0.9924,-0.9899,-0.9883,-0.9857,-0.9831,-0.9819,-0.9817,-0.9784,-0.979,-0.9791,-0.9788,-0.9774,-0.9773,-0.9771,-0.9787,-0.9788,-0.9788,0,0,-1.0069,-1.0052,-1.0035,-1.0019,-0.9994,-0.998,-0.9976,-0.9948,-0.9937,-0.9912,-0.9899,-0.9881,-0.9843,-0.9825,-0.9811,-0.9795,-0.9786,-0.9788,-0.9787,-0.9774,-0.9772,-0.9771,-0.9766,-0.9764,-0.9787,-0.9787,-0.9787,0,-1.0071,-1.0043,-1.0027,-1.0008,-0.9994,-0.998,-0.9962,-0.9947,-0.9915,-0.9906,-0.9905,-0.9858,-0.9839,-0.9809,-0.9806,-0.9795,-0.9789,-0.9791,-0.9774,-0.9773,-0.9772,-0.9766,-0.9764,-0.9787,-0.9787,-0.9787,-0.9787,0,-1.0047,-1.0028,-1.0017,-0.9989,-0.9974,-0.9956,-0.9936,-0.9922,-0.9913,-0.9898,-0.9872,-0.9849,-0.9822,-0.9814,-0.9804,-0.9783,-0.9783,-0.9779,-0.9777,-0.9771,-0.9765,-0.9763,-0.9788,-0.9788,-0.9787,-0.9787,0,0,-1.0043,-1.0008,-1.0004,-0.9991,-0.9963,-0.9947,-0.9928,-0.9904,-0.9892,-0.9871,-0.9854,-0.9823,-0.9819,-0.9803,-0.9791,-0.9779,-0.9768,-0.9776,-0.9775,-0.9775,-0.9743,-0.9747,-0.9744,-0.9762,-0.9762,-0.9761,-0.9746,0,-1.0029,-0.9996,-0.9981,-0.9954,-0.9935,-0.9922,-0.9906,-0.9886,-0.9872,-0.9854,-0.9837,-0.9816,-0.9812,-0.9803,-0.979,-0.9772,-0.9761,-0.9773,-0.9745,-0.9744,-0.9752,-0.9741,-0.9745,-0.9731,-0.9743,-0.9743,-0.9743,0,-1.0008,-0.9989,-0.9961,-0.9936,-0.9928,-0.9913,-0.9889,-0.9872,-0.985,-0.984,-0.9824,-0.9812,-0.979,-0.9791,-0.9761,-0.9769,-0.9757,-0.9746,-0.9745,-0.9741,-0.9743,-0.9737,-0.9726,-0.9724,-0.9739,-0.9739,-0.9739,0,-1.0008,-0.9975,-0.9954,-0.9943,-0.9914,-0.9904,-0.9891,-0.9869,-0.9855,-0.9834,-0.9825,-0.9802,-0.9788,-0.977,-0.9752,-0.9754,-0.9723,-0.9723,-0.9714,-0.9714,-0.9707,-0.9708,-0.9694,-0.97,-0.97,-0.97,-0.97,0,-0.9994,-0.9977,-0.9953,-0.994,-0.992,-0.9903,-0.9884,-0.987,-0.9851,-0.9834,-0.9821,-0.9805,-0.9782,-0.9763,-0.9749,-0.9726,-0.972,-0.9711,-0.9707,-0.9712,-0.9713,-0.9703,-0.9703,-0.97,-0.97,-0.97,-0.97,0,-0.999,-0.9973,-0.9949,-0.9924,-0.9917,-0.9904,-0.9881,-0.9868,-0.9854,-0.9832,-0.9826,-0.9803,-0.9781,-0.9761,-0.973,-0.9721,-0.9697,-0.9693,-0.9705,-0.9703,-0.9695,-0.9696,-0.9674,-0.967,-0.968,-0.968,-0.9679,0,-0.9981,-0.9968,-0.9942,-0.9931,-0.9918,-0.99,-0.9887,-0.9869,-0.9856,-0.983,-0.9819,-0.9796,-0.9776,-0.974,-0.972,-0.9696,-0.9691,-0.9685,-0.9687,-0.9693,-0.9691,-0.9692,-0.969,-0.9685,-0.9685,-0.9685,-0.9685,0,-0.9969,-0.9962,-0.9944,-0.9923,-0.9908,-0.989,-0.9872,-0.9863,-0.9842,-0.9828,-0.9805,-0.979,-0.976,-0.9736,-0.9711,-0.9696,-0.9687,-0.9684,-0.9681,-0.9685,-0.9693,-0.9689,-0.9704,-0.9685,-0.9685,-0.9685,-0.9685,-0.9685,-0.9962,-0.995,-0.993,-0.991,-0.9895,-0.9879,-0.9865,-0.985,-0.9831,-0.9807,-0.9797,-0.9774,-0.9752,-0.9717,-0.9703,-0.9684,-0.9682,-0.9677,-0.9676,-0.9675,-0.9676,-0.9697,-0.9679,-0.9679,-0.9679,-0.9679,-0.9679,0,-0.9948,-0.9935,-0.9918,-0.9894,-0.9878,-0.9872,-0.9852,-0.9839,-0.982,-0.9801,-0.9782,-0.9756,-0.9734,-0.9713,-0.9689,-0.9678,-0.9673,-0.9672,-0.9672,-0.9669,-0.9678,-0.9684,-0.9677,-0.9677,-0.9677,-0.9677,-0.9677,-0.9677,-0.9939,-0.9919,-0.9909,-0.9881,-0.9868,-0.9846,-0.9835,-0.982,-0.9805,-0.9777,-0.9759,-0.9746,-0.9726,-0.9701,-0.968,-0.9674,-0.9666,-0.9666,-0.9659,-0.9668,-0.9668,-0.9669,-0.9674,-0.9665,-0.9665,-0.9651,-0.9651,-0.9651]},{"header":{"parameterUnit":"m.s-1","parameterCategory":1,"la1":30.2991,"la2":30.254,"lo1":-89.0895,"lo2":-89.0444,"dy":0.0017,"dx":0.0017,"nx":28,"ny":28,"refTime":"2024-05-07T03:00:00:Z","depth":0,"parameterNumber":3,"parameterNumberName":"V-component_of_WINDS"},"data":[0,0,0,0,0,0,0,0,0,0,0,0,0,0,0,0,0,0,0,0,0,0,0,0,0,0,0,0,0,0,0,0,0,0,0,0,0,0,0,0,0,0,0,0,0,0,0,0,0,0,0,0,0,0,0,0,0,0,6.8601,6.8601,0,6.8639,6.8639,6.864,6.8584,6.8582,6.8581,6.8579,6.8612,6.8615,6.8617,0,0,0,0,0,0,0,0,0,0,0,0,0,6.8476,6.8478,6.8601,6.8601,6.8602,6.8639,6.8639,6.864,6.8585,6.8582,6.858,6.8578,6.8611,6.8614,6.8617,0,0,0,0,0,0,0,0,0,0,0,0,0,6.8523,6.8479,6.8601,6.8579,6.8577,6.8639,6.8639,6.864,6.8585,6.8582,6.8579,6.8577,6.861,6.8614,6.8618,6.87,0,0,6.863,6.8632,0,0,0,0,0,0,0,0,6.8521,6.8528,6.8582,6.8581,6.8579,6.8604,6.8607,6.866,6.8586,6.8582,6.8579,6.8575,6.8611,6.8615,6.8628,6.8702,6.8703,6.8631,6.8633,6.8635,6.8636,0,0,0,0,0,0,0,6.8518,6.8526,6.8616,6.8583,6.8581,6.8566,6.8569,6.8617,6.8612,6.8582,6.8578,6.8584,6.861,6.8625,6.8629,6.8704,6.863,6.8634,6.8637,6.8638,6.8847,6.885,0,0,0,0,0,0,6.8518,6.8524,6.8614,6.8617,6.8542,6.857,6.8574,6.8599,6.8612,6.8611,6.8586,6.8581,6.8619,6.8624,6.863,6.8727,6.8635,6.8638,6.8641,6.8844,6.8848,6.8851,0,0,0,0,0,0,6.8515,6.8526,6.8613,6.8569,6.8579,6.8575,6.8603,6.8601,6.8616,6.8615,6.8613,6.8602,6.8617,6.8624,6.8684,6.8727,6.864,6.8644,6.884,6.8845,6.8849,6.8922,0,0,0,0,0,0,6.8512,6.8526,6.8558,6.8571,6.8582,6.8668,6.8606,6.8604,6.8623,6.8617,6.8629,6.8629,6.8615,6.8678,6.8688,6.8731,6.8647,6.8836,6.8842,6.8848,6.8916,6.8929,6.894,0,0,0,0,0,6.8508,6.8576,6.856,6.8571,6.8623,6.8671,6.8677,6.8662,6.8627,6.8659,6.8658,6.8628,6.8721,6.8685,6.8695,6.874,6.8833,6.8841,6.8847,6.891,6.8926,6.8939,0,0,0,0,0,0,6.8566,6.8577,6.856,6.8634,6.8652,6.8661,6.8701,6.8679,6.8705,6.8698,6.8676,6.868,6.8744,6.8748,6.8707,6.8821,6.8771,6.8781,6.8815,6.883,6.8842,6.8839,6.865,0,0,0,0,0,6.8589,6.8629,6.8635,6.87,6.871,6.8704,6.8725,6.8712,6.8728,6.8735,6.8739,6.8755,6.8787,6.8809,6.8839,6.8917,6.8918,6.8953,6.8965,6.8975,6.8983,6.9023,6.9039,6.8874,6.8874,6.8874,0,0,6.8633,6.8644,6.867,6.8712,6.8724,6.8765,6.8711,6.8755,6.8785,6.8741,6.8798,6.8802,6.8818,6.8887,6.8917,6.8892,6.9029,6.8984,6.8992,6.8994,6.9032,6.9048,6.9062,6.8879,6.8878,6.8877,0,0,6.8736,6.8749,6.8805,6.8819,6.8839,6.8835,6.8849,6.8861,6.8863,6.892,6.8888,6.8922,6.8979,6.8992,6.9006,6.9115,6.9088,6.9126,6.9188,6.9228,6.9241,6.9252,6.929,6.9304,6.9134,6.9134,6.9134,0,6.8789,6.885,6.8836,6.8883,6.8902,6.8867,6.8923,6.8936,6.8965,6.8978,6.895,6.9021,6.903,6.9101,6.9128,6.9141,6.9154,6.9123,6.924,6.9252,6.9262,6.9298,6.9313,6.9138,6.9138,6.9138,6.9137,0,6.8914,6.8957,6.8999,6.903,6.9054,6.9105,6.9097,6.9122,6.9108,6.9106,6.9164,6.9174,6.9205,6.9221,6.9206,6.9291,6.9274,6.9244,6.9194,6.9282,6.9316,6.933,6.9145,6.9143,6.9142,6.9141,0,0,6.9053,6.9077,6.9092,6.9106,6.9126,6.9158,6.9208,6.9241,6.9262,6.9283,6.9323,6.9373,6.9345,6.9362,6.9348,6.9383,6.9469,6.9348,6.9348,6.937,6.9561,6.9583,6.9599,6.9452,6.9454,6.9456,6.9559,0,6.9155,6.9243,6.9232,6.9315,6.9353,6.9322,6.9364,6.9381,6.9381,6.9412,6.9411,6.9447,6.9408,6.9418,6.9452,6.9451,6.9506,6.9444,6.9487,6.9488,6.9483,6.9617,6.964,6.9737,6.9572,6.9574,6.9576,0,6.9285,6.9314,6.9402,6.9417,6.9432,6.9472,6.9501,6.9532,6.955,6.9547,6.9566,6.9547,6.9594,6.9545,6.961,6.9567,6.9584,6.9587,6.959,6.9592,6.9537,6.9622,6.9767,6.9781,6.9597,6.9595,6.9594,0,6.9377,6.9437,6.9497,6.951,6.9529,6.9557,6.9566,6.9581,6.9602,6.9627,6.964,6.967,6.9686,6.9709,6.9697,6.9662,6.9764,6.9713,6.9762,6.9762,6.9783,6.9782,6.9933,6.9797,6.9796,6.9796,6.9796,0,6.9492,6.9546,6.9539,6.9576,6.9636,6.9622,6.9681,6.9686,6.97,6.9736,6.971,6.9744,6.9727,6.9759,6.9751,6.9805,6.9813,6.9811,6.9808,6.9813,6.9813,6.9823,6.9815,6.98,6.9799,6.9798,6.9798,0,6.9604,6.9601,6.9665,6.9679,6.9684,6.9727,6.9738,6.9772,6.9771,6.9817,6.9826,6.9824,6.9861,6.9852,6.9892,6.9886,6.9955,6.9943,6.9949,6.9946,6.9995,6.999,7.0156,7.0177,7.0028,7.003,7.0031,0,6.9677,6.9718,6.9738,6.9761,6.9773,6.9811,6.9832,6.982,6.9843,6.9867,6.9898,6.9933,6.996,7.0021,7.0021,7.0051,7.004,7.0096,7.0044,7.0048,7.0039,7.0037,7.004,7.0106,7.0107,7.0109,7.011,0,6.9806,6.9803,6.9836,6.987,6.9897,6.9922,6.9944,6.9964,6.9953,6.9981,7.0019,7.0041,7.0083,7.0117,7.0145,7.0152,7.0129,7.0127,7.0139,7.0144,7.0146,7.0145,6.9976,7.0123,7.0121,7.012,7.012,7.0119,6.9899,6.9935,6.9955,6.9993,7.0009,7.0031,7.0063,7.0067,7.01,7.0134,7.0125,7.0169,7.0185,7.0221,7.0231,7.0264,7.0243,7.0261,7.0266,7.027,7.0276,7.0142,7.0269,7.0269,7.0269,7.0268,7.0268,0,7.0026,7.0038,7.0073,7.0107,7.0136,7.0115,7.0138,7.0164,7.0203,7.0222,7.025,7.0294,7.0328,7.0332,7.0363,7.0389,7.0379,7.0397,7.0395,7.0397,7.0294,7.0279,7.0405,7.0405,7.0405,7.0405,7.0405,7.0405,7.0096,7.0155,7.0155,7.0221,7.0232,7.0276,7.0292,7.0311,7.0326,7.0377,7.0406,7.0409,7.0421,7.0454,7.0483,7.0483,7.0496,7.0518,7.0514,7.0418,7.0404,7.0391,7.0377,7.0521,7.0521,7.0614,7.0615,7.0615]}]]